Ponca City, OK

7:49 PM CDT on October 17, 2017 (GMT -0500)
Ponca City Municipal

Weather History for KPNC - September, 2013

Change the Weather History Date:

Thursday, September 5, 2013

  Actual Average Record
Temperature  
Mean Temperature 80 °F -  
Max Temperature 93 °F 86 °F 105 °F (1998)
Min Temperature 66 °F 64 °F 49 °F (1974)
Cooling Degree Days 14    
Growing Degree Days 30 (Base 50)    
Moisture  
Dew Point 62 °F    
Average Humidity 55    
Maximum Humidity 84    
Minimum Humidity 37    
Precipitation  
Precipitation 0.00 in - - ()
Sea Level Pressure  
Sea Level Pressure 30.08 in    
Wind  
Wind Speed 7 mph (SE)    
Max Wind Speed 12 mph    
Max Gust Speed -    
Visibility 10 miles    
Events      
Averages and records for this station are not official NWS values.
T = Trace of Precipitation, MM = Missing Value Source: NWS Daily Summary

Daily Weather History Graph

Daily Weather History Graph

Search for Another Location

Airport or City:

Trip Planner

Search our weather history database for the weather conditions in past years. The results will help you decide how hot, cold, wet, or windy it might be!

Date:

Astronomy

Sep. 05, 2013 Rise Set
Actual Time 7:02 AM CDT 7:50 PM CDT
Civil Twilight 6:36 AM CDT 8:16 PM CDT
Nautical Twilight 6:05 AM CDT 8:47 PM CDT
Astronomical Twilight 5:33 AM CDT 9:19 PM CDT
Moon 7:14 AM CDT (9/5) 7:45 PM CDT (9/5)
Length of Visible Light 13h 40m
Length of Day
12h 47m
New Moon, 0% of the Moon is Illuminated
Sep 5
New Moon
Sep 12
First Quarter
Sep 19
Full
Sep 26
Last Quarter
Oct 4
New

Hourly Weather History & Observations

Time (CDT) Temp. Heat Index Dew Point Humidity Pressure Visibility Wind Dir Wind Speed Gust Speed Precip Events Conditions
12:53 AM 75.0 °F - 62.1 °F 64% 30.07 in 10.0 mi ESE 8.1 mph - N/A   Clear
1:53 AM 73.9 °F - 61.0 °F 64% 30.08 in 10.0 mi ESE 8.1 mph - N/A   Clear
2:53 AM 73.0 °F - 61.0 °F 66% 30.08 in 10.0 mi SE 8.1 mph - N/A   Clear
3:53 AM 69.1 °F - 61.0 °F 75% 30.07 in 10.0 mi ESE 3.5 mph - N/A   Clear
4:53 AM 69.1 °F - 61.0 °F 75% 30.07 in 10.0 mi ESE 3.5 mph - N/A   Clear
5:53 AM 66.9 °F - 61.0 °F 81% 30.08 in 10.0 mi Calm Calm - N/A   Clear
6:53 AM 66.0 °F - 61.0 °F 84% 30.10 in 10.0 mi Calm Calm - N/A   Clear
7:53 AM 71.1 °F - 62.1 °F 73% 30.11 in 10.0 mi SE 5.8 mph - N/A   Clear
8:53 AM 73.9 °F - 63.0 °F 68% 30.12 in 10.0 mi SE 5.8 mph - N/A   Clear
9:53 AM 81.0 °F 81.7 °F 61.0 °F 50% 30.12 in 10.0 mi SSE 8.1 mph - N/A   Clear
10:53 AM 82.9 °F 83.3 °F 61.0 °F 47% 30.13 in 10.0 mi South 9.2 mph - N/A   Clear
11:53 AM 86.0 °F 85.7 °F 60.1 °F 41% 30.13 in 10.0 mi Variable 5.8 mph - N/A   Clear
12:53 PM 88.0 °F 87.9 °F 61.0 °F 40% 30.11 in 10.0 mi Variable 5.8 mph - N/A   Clear
1:53 PM 91.0 °F 91.9 °F 63.0 °F 39% 30.08 in 10.0 mi ESE 8.1 mph - N/A   Clear
2:53 PM 91.9 °F 92.5 °F 62.1 °F 37% 30.06 in 10.0 mi Variable 4.6 mph - N/A   Clear
3:53 PM 93.9 °F 95.6 °F 64.0 °F 37% 30.05 in 10.0 mi East 8.1 mph - N/A   Clear
4:53 PM 93.0 °F 94.2 °F 63.0 °F 37% 30.04 in 10.0 mi SE 6.9 mph - N/A   Clear
5:53 PM 91.9 °F 92.9 °F 63.0 °F 38% 30.03 in 10.0 mi ESE 9.2 mph - N/A   Clear
6:53 PM 90.0 °F 90.6 °F 63.0 °F 40% 30.03 in 10.0 mi ESE 9.2 mph - N/A   Clear
7:53 PM 86.0 °F 87.3 °F 64.0 °F 48% 30.03 in 10.0 mi ESE 6.9 mph - N/A   Clear
8:53 PM 82.9 °F 84.6 °F 64.9 °F 54% 30.04 in 10.0 mi ESE 9.2 mph - N/A   Clear
9:53 PM 82.0 °F 83.1 °F 63.0 °F 52% 30.05 in 10.0 mi ESE 10.4 mph - N/A   Clear
10:53 PM 79.0 °F - 64.0 °F 60% 30.07 in 10.0 mi SE 11.5 mph - N/A   Clear
11:53 PM 78.1 °F - 64.0 °F 62% 30.07 in 10.0 mi SE 9.2 mph - N/A   Clear